CZ-4 DEB, 26196

Orbit data source: Space-Track

CZ-4 DEB, 26196 is space debris in SSO originally from a launch on Thu, 14 Oct 1999 UTC launched from the Taiyaun Space Center, China (TSC). Debris objects in space refer to the collection of defunct objects orbiting the Earth. Examples of debris include non-operational satellites, rocket bodies, and fragments generated from explosions, collisions, or faulty payload assembly.

Loading next visibility...
Identifier
26196, 1999-057CJ
Orbit
SSO
Country
Flag of CNCN / PRC
Related business
Manufacturer
Unknown
Mission
Spacecraft
Bus & Motor
Unknown
Mass
Unknown
Launch date (UTC)
1999-10-14 (26 years ago)
Launch vehicle
Unknown
Launch site
Taiyaun Space Center, China (TSC)
Object type
Payload
Rocket body
Debris
Shape & HBR
Unknown shape, 0.1 m
Radar Cross Section
Small (<0.1 m²)

Expand to show TLE details & history
Last TLE update: 22 hours ago

TLE from 22 hours ago
0 CZ-4 DEB
1 26196U 99057CJ  26037.20580233  .00000371  00000-0  26514-3 0  9997
2 26196  98.9076 301.2417 0336170 187.0098 328.4438 13.78754167298972
Epoch: 2026-02-06T04:56Z
TLE epoch observation values (Epoch: 2026-02-06T04:56:21.321Z)
Latitude
26.32758°
Longitude
-84.77001°
Altitude
763.348 km
Speed
7.58 km/s
True Right ascension
08h 22m 39s
True Declination
26° 11' 28"
Sunlit
Object was in full shadow at epoch
Visualization orbit readout
Latitude
Unknown
Longitude
Unknown
Altitude
Unknown
Speed
Unknown
Apparent Right ascension
Unknown
Apparent Declination
Unknown
Sunlit
N/A
Visualization observer readout
Local Sidereal Time
05:28:41
Azimuth
Unknown
Elevation
Unknown
Doppler factor
Unknown
Orbital elements
Apogee altitude
1,212.4 km
Perigee altitude
718.656 km
Semi-major axis
7,343.665 km
Eccentricity
0.03362
Inclination
98.9076°
RAAN
301.2417°
Arg. of periapsis
187.0098°
True anomaly
326.35351°
Mean anomaly
328.4438°
Eccentric anomaly
327.40624°
Mean motion
3.44885 °/min
Orbital period
104.38 mins
BSTAR
0.00026514
Loading maneuver chart data...
Computing Atmospheric mass density...
Loading historical data...
Loading historical data...
Loading historical data...
Loading historical data...
Loading historical data...
Loading historical data...
Loading historical data...

Documentation

Showing up to 5 results
|